STARLINK-33815, 63497

Orbit data source: Space-Track

STARLINK-33815, 63497 is a payload satellite owned by SpaceX/Seattle (US) in LEO that was launched on Mon, 07 Apr 2025 UTC via an FALCON 9 launch vehicle from the Air Force Western Test Range (AFWTR). Payload-class satellites include a variety of spacecraft equipped with specific instruments for various scientific and technological missions. These include communications satellites like Starlink; space stations such as the ISS; scientific satellites like the Hubble; Earth observation satellites from companies like Planet Labs, Umbra, and HawkEye 360; GPS; miniature CubeSats for education and research; and military/defense satellites.

Loading next visibility...
Identifier
63497, 2025-071E
Orbit
LEO
Last TLE update
10 hours ago
Origin
Manufacturer
SpaceX/Seattle
Mission
Operational Commercial Communications
Bus & Motor
STARLINK V2MO, Unknown motor
Mass
575 kg wet, ~530 kg dry
Launch date (UTC)
2025-04-07 (1 month ago)
Launch vehicle
FALCON 9
Launch site
Air Force Western Test Range (AFWTR)
Object type
Payload
Rocket body
Debris
Shape & HBR
Box + 1 Pan, 29 m
Radar Cross Section
41.120 m², Large (>1 m²)

Expand to show TLE details & history

TLE from 10 hours ago
0 STARLINK-33815
1 63497U 25071E   25128.91668981 -.01479221  00000-0 -37853-1 0  9995
2 63497  53.1600 120.0376 0001078  79.8139 320.5089 15.41922599  6132
Epoch: 2025-05-08T22:00Z
Definitive object data (Epoch: 2025-05-08T22:00:01.999Z)
Latitude
31.28325°
Longitude
-50.03509°
Altitude
441.778 km
Speed
7.651 km/s
True Right ascension
09h 47m 48s
True Declination
31° 07' 26"
Sunlit
Object was in daylight at TLE epoch
Visualization TLE readout
Latitude
-6.61643°
Longitude
106.04247°
Altitude
446.484 km
Speed
7.645 km/s
Apparent Right ascension
23h 08m 52s
Apparent Declination
-38° 15' 35"
Sunlit
Object is in daylight
Visualization observer readout
Local Sidereal Time
16:07:43
Azimuth
114.306° SE
Elevation
-33.789°
Doppler factor
1
Orbital elements
Apogee altitude
441.428 km
Perigee altitude
439.958 km
Semi-major axis
6,818.83 km
Eccentricity
0.0001078
Inclination
53.16°
RAAN
120.0376°
Arg. of periapsis
79.8139°
True anomaly
320.50104°
Mean anomaly
320.5089°
Eccentric anomaly
320.50497°
Mean motion
3.85459 °/min
BSTAR
-0.037853
Orbital period
93.4 mins
Loading maneuver chart data...
Loading SW <> Apogee altitude chart data...
Loading historical data...
Loading historical data...
Loading historical data...
Loading historical data...
Loading historical data...
Loading historical data...
Loading historical data...

STARLINK-33815 Visibility forecast

Observer location: undefined°, undefined°

Span
Click to sort rows by Start time (UTC) header in descending order
Start Az.
Max El. time (UTC)
Max El. Az.
Max El.
End time (UTC)
End Az.
6 mins2025-05-09 09:13:38.023Z305.52° NW2025-05-09 09:16:38.023Z195.765° SSW43.425°2025-05-09 09:19:38.023Z138.002° SSE
6 mins2025-05-10 02:02:38.023Z232.729° WSW2025-05-10 02:05:38.023Z315.859° NNW44.669°2025-05-10 02:08:38.023Z47.863° ENE
|